Retour au catalogue

INTELSAT 706

ActifCommunicationsGEO
NORAD 23571·PAYLOAD· XX

Lancé May 17, 1995 depuis Guiana Space Centre

Loading…

TLE

FraisSource: Space-Track

Époque: Sep 14, 2026, 06:43 UTC

1 23571U 95023A   26257.28010433 -.00000223  00000-0  00000-0 0  9998
2 23571  11.1411  44.0279 0001161 245.7562 114.4011  0.99052836114207

Suivez INTELSAT 706 en temps réel avec AllMySat

Download on the App Store